, AK

(GMT )
Valdez Airport

Weather History for PAVD - October, 2012

Change the Weather History Date:

Tuesday, October 2, 2012

  Actual Average Record
Temperature  
Mean Temperature 36 °F -  
Max Temperature 39 °F 49 °F 62 °F (1967)
Min Temperature 32 °F 36 °F 28 °F (2000)
Degree Days  
Heating Degree Days 30    
Moisture  
Dew Point 30 °F    
Average Humidity 82    
Maximum Humidity 93    
Minimum Humidity 70    
Precipitation  
Precipitation 0.00 in - - ()
Sea Level Pressure  
Sea Level Pressure 30.46 in    
Wind  
Wind Speed 1 mph (SE)    
Max Wind Speed 6 mph    
Max Gust Speed -    
Visibility 8 miles    
Events      
Averages and records for this station are not official NWS values.
T = Trace of Precipitation, MM = Missing Value Source: NWS Daily Summary

Daily Weather History Graph

Daily Weather History Graph

Search for Another Location

Airport or City:

Trip Planner

Search our weather history database for the weather conditions in past years. The results will help you decide how hot, cold, wet, or windy it might be!

Date:

Astronomy

Oct. 02, 2012 Rise Set
Actual Time 7:55 AM AKDT 7:11 PM AKDT
Civil Twilight 7:12 AM AKDT 7:54 PM AKDT
Nautical Twilight 6:22 AM AKDT 8:44 PM AKDT
Astronomical Twilight 5:29 AM AKDT 9:36 PM AKDT
Moon 7:26 PM AKDT (10/2) 11:31 AM AKDT (10/2)
Length of Visible Light 12h 41m
Length of Day
11h 15m
Waning Gibbous, 93% of the Moon is Illuminated
Oct 2
Waning Gibbous
Oct 7
Last Quarter
Oct 15
New
Oct 21
First Quarter
Oct 29
Full

Hourly Weather History & Observations

Time (AKDT) Temp. Windchill Dew Point Humidity Pressure Visibility Wind Dir Wind Speed Gust Speed Precip Events Conditions
12:16 AM 33.8 °F - 26.6 °F 75% 30.47 in 10.0 mi Calm Calm - N/A   Clear
12:36 AM 32.0 °F - 26.6 °F 80% 30.47 in 10.0 mi Calm Calm - N/A   Clear
12:56 AM 33.8 °F - 28.4 °F 81% 30.47 in 10.0 mi Calm Calm - N/A   Clear
1:16 AM 32.0 °F - 24.8 °F 75% 30.48 in 10.0 mi Calm Calm - N/A   Clear
1:36 AM 32.0 °F 28.7 °F 26.6 °F 80% 30.49 in 10.0 mi East 3.5 mph - N/A   Clear
1:56 AM 33.8 °F - 28.4 °F 81% 30.50 in 10.0 mi Calm Calm - N/A   Clear
2:16 AM 32.0 °F - 28.4 °F 87% 30.50 in 10.0 mi Calm Calm - N/A   Clear
2:36 AM 32.0 °F - 26.6 °F 80% 30.50 in 10.0 mi Calm Calm - N/A   Partly Cloudy
2:56 AM 32.0 °F - 26.6 °F 80% 30.51 in 10.0 mi Calm Calm - N/A   Mostly Cloudy
3:16 AM 33.8 °F 29.6 °F 28.4 °F 81% 30.50 in 10.0 mi ENE 4.6 mph - N/A   Overcast
3:36 AM 33.8 °F - 26.6 °F 75% 30.51 in 10.0 mi Calm Calm - N/A   Overcast
3:56 AM 33.8 °F - 26.6 °F 75% 30.51 in 10.0 mi Calm Calm - N/A   Overcast
4:16 AM 33.8 °F - 28.4 °F 81% 30.51 in 10.0 mi Calm Calm - N/A   Overcast
4:36 AM 33.8 °F - 28.4 °F 81% 30.50 in 10.0 mi Calm Calm - N/A   Overcast
4:56 AM 33.8 °F - 26.6 °F 75% 30.51 in 10.0 mi Calm Calm - N/A   Overcast
5:16 AM 33.8 °F 30.8 °F 28.4 °F 81% 30.51 in 10.0 mi ESE 3.5 mph - N/A   Overcast
5:36 AM 33.8 °F - 28.4 °F 81% 30.51 in 10.0 mi Calm Calm - N/A   Overcast
5:56 AM 33.8 °F - 28.4 °F 81% 30.50 in 10.0 mi Calm Calm - N/A   Overcast
6:16 AM 33.8 °F - 30.2 °F 87% 30.50 in 10.0 mi Calm Calm - N/A   Overcast
6:36 AM 33.8 °F - 30.2 °F 87% 30.51 in 10.0 mi Calm Calm - N/A   Overcast
6:56 AM 33.8 °F - 28.4 °F 81% 30.50 in 10.0 mi Calm Calm - N/A   Overcast
7:16 AM 35.6 °F - 28.4 °F 75% 30.50 in 10.0 mi Calm Calm - N/A   Overcast
7:36 AM 33.8 °F - 30.2 °F 87% 30.50 in 10.0 mi Calm Calm - N/A   Overcast
7:56 AM 33.8 °F - 30.2 °F 87% 30.50 in 10.0 mi Calm Calm - N/A   Overcast
8:16 AM 35.6 °F - 30.2 °F 81% 30.50 in 10.0 mi Calm Calm - N/A   Overcast
8:36 AM 35.6 °F - 28.4 °F 75% 30.50 in 10.0 mi Calm Calm - N/A   Overcast
8:56 AM 35.6 °F - 30.2 °F 81% 30.50 in 10.0 mi Calm Calm - N/A   Overcast
9:16 AM 35.6 °F 31.7 °F 30.2 °F 81% 30.50 in 10.0 mi NE 4.6 mph - N/A   Overcast
9:36 AM 35.6 °F 31.7 °F 30.2 °F 81% 30.49 in 10.0 mi East 4.6 mph - N/A   Overcast
9:56 AM 37.4 °F - 32.0 °F 81% 30.50 in 10.0 mi Calm Calm - N/A   Overcast
10:16 AM 35.6 °F - 30.2 °F 81% 30.49 in 10.0 mi Calm Calm - N/A   Overcast
10:36 AM 37.4 °F - 30.2 °F 75% 30.49 in 10.0 mi Calm Calm - N/A   Overcast
10:56 AM 37.4 °F - 30.2 °F 75% 30.49 in 10.0 mi Calm Calm - N/A   Overcast
11:16 AM 37.4 °F - 30.2 °F 75% 30.49 in 10.0 mi Calm Calm - N/A   Overcast
11:36 AM 39.2 °F - 30.2 °F 70% 30.49 in 10.0 mi Calm Calm - N/A   Overcast
11:56 AM 39.2 °F - 30.2 °F 70% 30.49 in 10.0 mi Calm Calm - N/A   Overcast
12:16 PM 39.2 °F 35.9 °F 33.8 °F 81% 30.50 in 10.0 mi West 4.6 mph - N/A   Overcast
12:36 PM 39.2 °F - 30.2 °F 70% 30.49 in 10.0 mi Calm Calm - N/A   Overcast
12:56 PM 39.2 °F 37.0 °F 32.0 °F 75% 30.49 in 8.0 mi South 3.5 mph - N/A   Overcast
1:16 PM 39.2 °F - 30.2 °F 70% 30.49 in 8.0 mi Calm Calm - N/A   Overcast
1:36 PM 39.2 °F - 30.2 °F 70% 30.49 in 8.0 mi Calm Calm - N/A   Overcast
1:56 PM 39.2 °F - 30.2 °F 70% 30.50 in 7.0 mi Calm Calm - N/A   Overcast
2:16 PM 39.2 °F - 30.2 °F 70% 30.49 in 7.0 mi Calm Calm - N/A   Overcast
2:36 PM 37.4 °F 33.8 °F 32.0 °F 81% 30.49 in 6.0 mi East 4.6 mph - N/A   Overcast
2:56 PM 37.4 °F 34.9 °F 30.2 °F 75% 30.48 in 5.0 mi East 3.5 mph - N/A   Overcast
3:16 PM 35.6 °F 32.8 °F 32.0 °F 87% 30.47 in 5.0 mi East 3.5 mph - N/A   Overcast
3:36 PM 35.6 °F - 32.0 °F 87% 30.46 in 5.0 mi Calm Calm - N/A   Overcast
3:56 PM 35.6 °F - 30.2 °F 81% 30.45 in 4.0 mi Calm Calm - N/A   Overcast
4:16 PM 35.6 °F - 30.2 °F 81% 30.45 in 4.0 mi Calm Calm - N/A   Overcast
4:36 PM 35.6 °F - 30.2 °F 81% 30.44 in 4.0 mi Calm Calm - N/A   Overcast
4:56 PM 37.4 °F - 32.0 °F 81% 30.42 in 6.0 mi Calm Calm - N/A   Overcast
5:16 PM 35.6 °F 30.7 °F 33.8 °F 93% 30.42 in 6.0 mi SW 5.8 mph - N/A   Overcast
5:36 PM 35.6 °F 31.7 °F 33.8 °F 93% 30.42 in 6.0 mi WSW 4.6 mph - N/A   Overcast
5:56 PM 35.6 °F 32.8 °F 32.0 °F 87% 30.41 in 4.0 mi WSW 3.5 mph - N/A   Overcast
6:16 PM 35.6 °F 32.8 °F 32.0 °F 87% 30.42 in 4.0 mi SW 3.5 mph - N/A   Overcast
6:36 PM 35.6 °F - 33.8 °F 93% 30.41 in 5.0 mi Calm Calm - N/A   Overcast
6:56 PM 35.6 °F - 30.2 °F 81% 30.41 in 5.0 mi Calm Calm - N/A   Overcast
7:16 PM 35.6 °F - 32.0 °F 87% 30.41 in 5.0 mi Calm Calm - N/A   Overcast
7:36 PM 35.6 °F - 33.8 °F 93% 30.41 in 5.0 mi Calm Calm - N/A   Overcast
7:56 PM 35.6 °F - 32.0 °F 87% 30.40 in 4.0 mi Calm Calm - N/A   Overcast
8:16 PM 35.6 °F - 32.0 °F 87% 30.40 in 4.0 mi Calm Calm - N/A   Overcast
8:36 PM 35.6 °F - 30.2 °F 81% 30.40 in 4.0 mi Calm Calm - N/A   Overcast
8:56 PM 35.6 °F - 32.0 °F 87% 30.40 in 5.0 mi Calm Calm - N/A   Overcast
9:16 PM 35.6 °F - 32.0 °F 87% 30.39 in 5.0 mi Calm Calm - N/A   Overcast
9:36 PM 35.6 °F - 32.0 °F 87% 30.39 in 5.0 mi Calm Calm - N/A   Overcast
9:56 PM 35.6 °F - 32.0 °F 87% 30.39 in 6.0 mi Calm Calm - N/A   Overcast
10:16 PM 35.6 °F - 32.0 °F 87% 30.39 in 10.0 mi Calm Calm - N/A   Overcast
10:36 PM 35.6 °F - 33.8 °F 93% 30.39 in 10.0 mi Calm Calm - N/A   Overcast
10:56 PM 35.6 °F - 32.0 °F 87% 30.39 in 10.0 mi Calm Calm - N/A   Overcast
11:16 PM 35.6 °F - 32.0 °F 87% 30.39 in 10.0 mi Calm Calm - N/A   Overcast
11:36 PM 35.6 °F - 33.8 °F 93% 30.39 in 10.0 mi Calm Calm - N/A   Overcast
11:56 PM 35.6 °F - 32.0 °F 87% 30.39 in 10.0 mi Calm Calm - N/A   Overcast